This is the latest recevied weather packets stored in our database for station/object KI5MKI. If no packets are shown the sender has not sent any weather packets the latest 1 day(s).
| Time | Temp. | Humidity | Pressure | Rain* | Wind** | Luminosity | Snow |
|---|---|---|---|---|---|---|---|
| 1778031702 | 25° C | 78% | 1006.5 hPa | 0 mm | 1.34 m/s, 260° | 0 W/m² | - |
| 1778031400 | 25.56° C | 77% | 1006.2 hPa | 0 mm | 0.89 m/s, 273° | 0 W/m² | - |
| 1778031097 | 25.56° C | 77% | 1006.1 hPa | 0 mm | 0 m/s | 0 W/m² | - |
| 1778030793 | 25.56° C | 76% | 1005.8 hPa | 0 mm | 1.34 m/s, 184° | 0 W/m² | - |
| 1778030490 | 25.56° C | 76% | 1006 hPa | 0 mm | 1.34 m/s, 168° | 0 W/m² | - |
| 1778030188 | 25.56° C | 75% | 1006 hPa | 0 mm | 1.79 m/s, 164° | 0 W/m² | - |
| 1778029883 | 25.56° C | 75% | 1006 hPa | 0 mm | 1.34 m/s, 169° | 0 W/m² | - |
| 1778029583 | 25.56° C | 75% | 1006.2 hPa | 0 mm | 0 m/s | 1 W/m² | - |
| 1778029279 | 25.56° C | 75% | 1006.3 hPa | 0 mm | 2.24 m/s, 175° | 1 W/m² | - |
| 1778028976 | 25.56° C | 75% | 1006.1 hPa | 0 mm | 1.34 m/s, 162° | 2 W/m² | - |
| 1778028672 | 25.56° C | 75% | 1005.9 hPa | 0 mm | 0.89 m/s, 164° | 5 W/m² | - |
| 1778028369 | 25.56° C | 75% | 1005.7 hPa | 0 mm | 1.34 m/s, 166° | 11 W/m² | - |
| 1778028066 | 26.11° C | 75% | 1005.6 hPa | 0 mm | 1.34 m/s, 162° | 11 W/m² | - |
| 1778027762 | 26.11° C | 75% | 1005.5 hPa | 0 mm | 1.34 m/s, 139° | 10 W/m² | - |
| 1778027459 | 26.11° C | 75% | 1005.7 hPa | 0 mm | 2.68 m/s, 169° | 12 W/m² | - |
| 1778027154 | 26.11° C | 74% | 1005.7 hPa | 0 mm | 2.24 m/s, 165° | 14 W/m² | - |
| 1778026851 | 26.11° C | 74% | 1005.6 hPa | 0 mm | 2.24 m/s, 175° | 14 W/m² | - |
| 1778026547 | 26.11° C | 74% | 1005.7 hPa | 0 mm | 1.34 m/s, 176° | 16 W/m² | - |
| 1778026244 | 26.67° C | 74% | 1005.5 hPa | 0 mm | 1.79 m/s, 145° | 24 W/m² | - |
| 1778025942 | 26.67° C | 73% | 1005.4 hPa | 0 mm | 1.34 m/s, 158° | 46 W/m² | - |
| 1778025639 | 26.67° C | 73% | 1005.3 hPa | 0 mm | 1.34 m/s, 151° | 66 W/m² | - |
| 1778025337 | 26.67° C | 73% | 1005.2 hPa | 0 mm | 1.34 m/s, 217° | 61 W/m² | - |
| 1778025033 | 26.67° C | 72% | 1005.5 hPa | 0 mm | 2.24 m/s, 190° | 61 W/m² | - |
| 1778024730 | 26.67° C | 73% | 1005.3 hPa | 0 mm | 1.34 m/s, 159° | 61 W/m² | - |
| 1778024427 | 26.67° C | 73% | 1005.5 hPa | 0 mm | 1.34 m/s, 175° | 89 W/m² | - |
* Rain latest hour (hover to see other rain measurements)
** Current wind speed in m/s (hover to see current wind gust speed)